Flag for United Kingdom Weather past 2 weeks in Watford, England, United Kingdom

Now
79 °F

Scattered clouds.


Feels Like: 80 °F
Forecast: 58 / 81 °F
Wind: 14 mph from Southwest

Location: Northolt

Current Time: Jul 2, 2015 at 5:43:05 PM

Latest Report: Jul 2, 2015 at 4:50 PM


Visibility: N/A

Pressure: 30.09 "Hg

Humidity: 54%

Dew point: 61 °F

Location of WatfordLocation

Historic Weather in Watford — Graph

°F

Watford temperature yesterday

Maximum temperature yesterday: 95 °F (at 2:50 PM)
Minimum temperature yesterday: 68 °F (at 5:50 AM)
Average temperature yesterday: 82 °F

Past Weeks' High & Low Weather Summary

 TemperatureHumidityPressure
High95 °F (Jul 1, 2:50 PM)94% (Jun 20, 6:50 PM)30.18 "Hg (Jun 20, 6:50 PM)
Low48 °F (Jun 19, 4:50 AM)26% (Jul 1, 2:50 PM)29.77 "Hg (Jun 22, 1:50 PM)
Average65 °F65%30.06 "Hg
* Reported Jun 17 3:50 PM — Jul 2 3:50 PM, Watford, Weather by CustomWeather, © 2015

Note: Actual official high and low records may vary slightly from our data, if they occured in-between our weather recording intervals... More about our weather records

Advertising

Watford weather history for previous 24 hours

 ConditionsComfort  
Time TempWeatherWind HumidityBarometerVisibility
3:50 PM
Thu, Jul 2
77 °FBroken clouds.10 mph57%30.07 "HgN/A
2:50 PM77 °FPartly sunny.8 mph54%30.07 "HgN/A
1:50 PM73 °FPartly sunny.3 mph65%30.07 "HgN/A
12:50 PM72 °FBroken clouds.7 mph69%30.07 "HgN/A
11:50 AM70 °FBroken clouds.6 mph73%30.07 "HgN/A
10:50 AM68 °FSprinkles. Broken clouds.6 mph73%30.07 "HgN/A
9:50 AM68 °FSprinkles. Partly sunny.10 mph73%30.04 "HgN/A
8:50 AM70 °FPartly sunny.5 mph69%30.04 "HgN/A
7:50 AM66 °FSunny.3 mph78%30.04 "Hg10 mi
6:50 AM64 °FScattered clouds.8 mph83%30.04 "HgN/A
5:50 AM64 °FPartly sunny.3 mph83%30.01 "HgN/A
4:50 AM63 °FClear.7 mph88%29.98 "HgN/A
3:50 AM64 °FPassing clouds.8 mph88%29.98 "HgN/A
2:50 AM64 °FClear.10 mph83%29.98 "HgN/A
1:50 AM66 °FClear.13 mph78%29.98 "HgN/A
12:50 AM70 °FClear.5 mph73%29.95 "HgN/A
11:50 PM
Wed, Jul 1
73 °FClear.8 mph69%29.92 "Hg10 mi
10:50 PM77 °FClear.9 mph61%29.92 "Hg10 mi
9:50 PM81 °FSunny.8 mph58%29.89 "Hg10 mi
8:50 PM82 °FSunny.10 mph51%29.86 "Hg10 mi
7:50 PM88 °FSunny.9 mph38%29.83 "Hg10 mi
6:50 PM90 °FSunny.13 mph36%29.83 "Hg10 mi
5:50 PM93 °FSunny.15 mph32%29.80 "Hg10 mi
Weather by CustomWeather, © 2015

See weather overviewHow to use our weather pages